Total_Precipitation_Accumulation
0.90 1.11 1.62 2.28 2.90 2.24 1.60 1.30 0.97 0.86 0.75 0.64 0.58 0.62 0.75 0.91 1.36 2.05 2.17 1.90 1.36 1.17 1.46 1.93 2.08 1.98 1.73 1.53 1.54 1.67 1.68 1.78 1.69 1.49 1.32 1.12 0.98 0.85 0.90 0.89 0.87 0.83 0.71 0.75 0.82 0.79 0.74 0.69 0.59
0.89 1.65 2.21 3.01 2.83 1.79 1.53 1.31 1.11 0.79 0.62 0.48 0.40 0.53 0.67 0.63 0.77 1.48 2.19 2.09 1.29 1.02 1.18 1.50 1.72 1.72 1.64 1.57 1.59 1.66 1.62 1.52 1.38 1.21 1.06 0.97 0.96 0.87 0.81 0.83 0.85 0.78 0.70 0.73 0.76 0.83 0.77 0.67 0.55
1.05 1.89 2.47 2.75 1.99 1.53 1.48 1.25 1.02 0.72 0.57 0.48 0.38 0.40 0.59 0.84 1.04 1.72 1.98 1.40 1.08 0.93 1.16 1.45 1.62 1.55 1.53 1.50 1.55 1.56 1.49 1.34 1.21 1.12 1.03 0.94 0.93 0.91 0.88 0.86 0.87 0.77 0.67 0.61 0.70 0.76 0.69 0.63 0.54
1.40 2.20 2.45 2.08 1.55 1.18 1.06 1.07 0.83 0.69 0.50 0.36 0.36 0.48 0.63 1.00 1.24 1.61 1.54 1.12 0.98 0.96 1.22 1.36 1.49 1.46 1.41 1.47 1.48 1.33 1.14 1.07 1.17 1.15 1.04 0.97 0.91 0.89 0.88 0.84 0.76 0.65 0.61 0.61 0.67 0.70 0.66 0.63 0.54
1.75 2.37 2.32 1.75 1.38 1.16 0.96 0.86 0.71 0.64 0.54 0.41 0.36 0.65 1.02 1.24 1.29 1.32 1.28 1.07 1.03 1.21 1.44 1.35 1.41 1.41 1.33 1.32 1.31 1.16 1.11 1.14 1.30 1.26 1.15 1.09 0.96 0.89 0.87 0.78 0.64 0.55 0.57 0.64 0.78 0.79 0.62 0.57 0.55
2.19 2.34 2.53 1.90 1.46 1.25 1.11 0.85 0.65 0.55 0.49 0.41 0.41 0.69 1.20 1.45 1.42 1.41 1.35 1.25 1.17 1.22 1.34 1.34 1.44 1.41 1.24 1.13 1.12 1.00 1.02 1.23 1.40 1.35 1.30 1.35 1.10 0.90 0.77 0.70 0.63 0.56 0.54 0.61 0.74 0.76 0.61 0.55 0.59
2.33 2.40 2.14 1.62 1.48 1.59 1.22 0.76 0.66 0.61 0.60 0.46 0.39 0.71 1.24 1.58 1.35 1.20 1.21 1.13 1.11 1.15 1.17 1.10 1.14 1.21 1.12 1.06 1.09 1.05 1.08 1.18 1.30 1.23 1.22 1.21 0.92 0.71 0.63 0.63 0.62 0.59 0.62 0.68 0.70 0.74 0.66 0.63 0.65
1.62 1.74 1.69 1.56 1.57 1.57 1.08 0.67 0.56 0.52 0.57 0.40 0.35 0.63 1.15 1.31 1.12 1.14 1.12 1.09 1.09 1.09 1.05 0.90 0.93 1.12 1.22 1.14 1.13 1.19 1.21 1.17 1.24 1.11 1.06 0.99 0.71 0.56 0.56 0.55 0.54 0.54 0.60 0.68 0.72 0.74 0.69 0.67 0.67
1.50 1.72 1.90 1.82 1.55 1.37 0.99 0.76 0.55 0.40 0.43 0.37 0.32 0.39 0.58 0.76 0.88 1.02 1.09 1.06 1.16 1.05 0.95 0.88 0.79 0.84 1.03 1.15 1.11 1.29 1.34 1.27 1.13 1.04 1.03 0.91 0.63 0.53 0.53 0.50 0.61 0.63 0.70 0.76 0.78 0.75 0.67 0.63 0.58
1.48 1.78 1.86 1.39 1.08 1.02 0.93 0.79 0.62 0.57 0.59 0.50 0.44 0.42 0.47 0.63 0.78 0.84 0.89 0.93 1.01 0.99 0.83 0.79 0.73 0.67 0.67 0.74 1.04 1.41 1.24 1.15 0.93 0.90 0.85 0.84 0.77 0.72 0.56 0.57 0.74 0.79 0.82 0.82 0.80 0.77 0.64 0.50 0.42
1.21 1.30 1.21 1.14 0.83 0.71 0.83 0.78 0.58 0.61 0.69 0.52 0.50 0.47 0.48 0.57 0.61 0.64 0.72 0.75 0.78 0.86 0.81 0.72 0.65 0.58 0.58 0.70 0.82 1.03 1.10 1.08 0.93 0.80 0.78 0.85 0.80 0.70 0.60 0.53 0.60 0.71 0.79 0.72 0.69 0.67 0.52 0.46 0.48
1.07 0.99 0.86 0.83 0.66 0.67 0.85 0.72 0.59 0.66 0.61 0.39 0.34 0.38 0.48 0.55 0.53 0.51 0.60 0.74 0.80 0.83 0.83 0.77 0.68 0.63 0.59 0.59 0.57 0.66 0.71 0.75 0.73 0.65 0.66 0.79 0.75 0.70 0.67 0.67 0.63 0.64 0.68 0.74 0.71 0.67 0.58 0.53 0.53
0.98 0.92 0.74 0.61 0.65 0.68 0.75 0.76 0.64 0.62 0.49 0.40 0.35 0.45 0.51 0.50 0.48 0.49 0.56 0.67 0.72 0.77 0.83 0.81 0.71 0.65 0.60 0.56 0.52 0.49 0.58 0.61 0.62 0.66 0.63 0.66 0.71 0.70 0.68 0.65 0.71 0.72 0.70 0.73 0.72 0.64 0.59 0.57 0.53
0.93 0.87 0.80 0.66 0.67 0.69 0.75 0.77 0.70 0.73 0.56 0.45 0.38 0.44 0.46 0.48 0.48 0.50 0.54 0.64 0.66 0.67 0.80 0.83 0.76 0.72 0.67 0.60 0.56 0.54 0.59 0.64 0.62 0.55 0.53 0.58 0.61 0.63 0.73 0.77 0.78 0.79 0.79 0.85 0.84 0.65 0.65 0.68 0.62
0.82 0.88 0.87 0.79 0.78 0.76 0.78 0.95 0.86 0.78 0.65 0.61 0.48 0.41 0.44 0.44 0.44 0.50 0.51 0.57 0.63 0.71 0.84 0.83 0.80 0.88 0.80 0.71 0.70 0.62 0.65 0.65 0.63 0.63 0.62 0.65 0.67 0.69 0.79 0.87 0.89 0.87 0.85 0.87 1.09 0.98 0.74 0.70 0.66
0.95 1.05 1.20 0.86 0.77 0.81 0.93 1.11 0.83 0.80 0.76 0.78 0.61 0.50 0.47 0.45 0.43 0.42 0.44 0.55 0.59 0.73 0.83 0.94 0.84 0.92 0.88 0.83 0.82 0.77 0.77 0.78 0.73 0.71 0.73 0.73 0.77 0.80 0.89 0.95 0.86 0.92 0.99 1.02 1.18 1.24 0.95 0.77 0.76
1.10 1.17 1.16 0.92 0.70 0.73 0.83 0.92 0.76 0.72 0.67 0.66 0.60 0.54 0.55 0.43 0.41 0.38 0.39 0.45 0.52 0.67 0.78 0.93 0.96 0.93 0.97 0.98 1.00 0.96 0.92 0.93 0.89 0.88 0.83 0.85 0.89 0.96 1.03 1.05 0.99 0.99 1.01 1.11 1.12 1.32 1.28 1.08 0.97
1.05 0.93 0.89 0.81 0.71 0.71 0.71 0.62 0.60 0.60 0.60 0.55 0.54 0.51 0.46 0.40 0.40 0.39 0.35 0.36 0.42 0.59 0.72 0.86 1.01 1.12 1.18 1.20 1.25 1.24 1.15 1.07 1.10 1.12 1.09 1.10 1.15 1.11 1.17 1.20 1.22 1.30 1.28 1.27 1.19 1.38 1.49 1.29 1.23
0.73 0.72 0.73 0.63 0.57 0.59 0.53 0.46 0.49 0.52 0.54 0.47 0.48 0.48 0.39 0.35 0.38 0.36 0.31 0.33 0.36 0.47 0.59 0.75 1.11 1.53 1.71 1.59 1.55 1.60 1.69 1.67 1.58 1.55 1.51 1.56 1.55 1.55 1.59 1.56 1.55 1.51 1.47 1.52 1.51 1.75 2.10 1.64 1.42
0.68 0.74 0.75 0.65 0.48 0.47 0.46 0.39 0.39 0.43 0.47 0.41 0.39 0.42 0.38 0.33 0.30 0.27 0.23 0.26 0.31 0.48 0.63 0.75 1.05 1.49 1.68 1.78 1.90 2.11 2.28 2.16 2.02 2.01 1.95 2.02 2.04 2.19 2.16 2.14 2.13 2.03 2.02 2.00 1.93 2.03 2.32 1.98 1.75
0.68 0.71 0.70 0.62 0.48 0.42 0.41 0.42 0.36 0.40 0.36 0.34 0.35 0.37 0.32 0.26 0.24 0.24 0.22 0.25 0.30 0.42 0.54 0.68 0.88 1.17 1.53 1.78 2.04 2.32 2.54 2.51 2.38 2.22 2.20 2.25 2.31 2.47 2.61 2.61 2.64 2.46 2.33 2.34 2.26 2.22 2.37 2.44 2.18
0.70 0.48 0.44 0.44 0.56 0.57 0.43 0.62 0.43 0.42 0.39 0.34 0.35 0.35 0.33 0.27 0.25 0.28 0.25 0.25 0.29 0.37 0.47 0.62 0.81 1.04 1.30 1.54 1.94 2.37 2.66 2.74 2.65 2.54 2.49 2.45 2.47 2.52 2.74 2.79 2.90 2.73 2.60 2.55 2.46 2.28 2.39 2.69 2.63
0.52 0.40 0.39 0.41 0.50 0.46 0.33 0.45 0.43 0.35 0.37 0.34 0.32 0.31 0.30 0.28 0.28 0.30 0.30 0.33 0.36 0.38 0.43 0.57 0.72 0.94 1.21 1.43 1.78 2.18 2.45 2.66 2.80 2.63 2.49 2.51 2.54 2.57 2.70 2.84 2.95 2.82 2.68 2.61 2.70 2.59 2.54 2.47 2.46
0.40 0.42 0.41 0.42 0.48 0.53 0.26 0.38 0.49 0.34 0.30 0.30 0.28 0.26 0.27 0.30 0.34 0.38 0.47 0.51 0.50 0.44 0.49 0.60 0.69 0.85 1.03 1.17 1.39 1.62 1.94 2.20 2.53 2.52 2.45 2.57 2.55 2.48 2.41 2.57 2.80 2.74 2.72 2.73 2.81 2.85 2.78 2.77 2.77
0.38 0.58 0.73 0.73 0.70 0.48 0.21 0.35 0.50 0.35 0.27 0.28 0.29 0.28 0.28 0.31 0.36 0.44 0.58 0.63 0.65 0.56 0.52 0.55 0.70 0.79 0.87 0.97 1.06 1.21 1.46 1.62 1.98 2.29 2.26 2.19 2.24 2.30 2.36 2.40 2.40 2.41 2.49 2.63 2.86 2.83 2.72 2.71 2.81
0.32 0.51 0.80 0.88 0.77 0.50 0.35 0.52 0.56 0.40 0.32 0.29 0.27 0.30 0.35 0.38 0.44 0.60 0.77 0.79 0.78 0.69 0.60 0.60 0.71 0.80 0.84 0.89 0.91 1.00 1.13 1.22 1.38 1.59 1.70 1.73 1.80 2.02 2.14 2.25 2.23 2.24 2.31 2.39 2.52 2.56 2.58 2.54 2.53
0.28 0.34 0.39 0.56 0.54 0.56 0.54 0.63 0.55 0.35 0.33 0.34 0.36 0.40 0.50 0.59 0.63 0.76 0.91 0.94 0.85 0.77 0.69 0.67 0.74 0.87 0.88 0.90 0.93 1.01 1.04 1.04 1.14 1.17 1.31 1.49 1.53 1.59 1.73 1.84 1.95 2.07 2.12 2.20 2.35 2.43 2.41 2.44 2.43
0.19 0.25 0.41 0.61 0.77 0.79 0.64 0.65 0.61 0.46 0.45 0.43 0.48 0.54 0.66 0.76 0.83 0.92 1.07 1.08 0.92 0.80 0.70 0.68 0.73 0.86 1.04 1.16 1.13 1.10 1.14 1.21 1.42 1.45 1.30 1.28 1.43 1.49 1.54 1.59 1.67 1.83 1.96 2.05 2.14 2.25 2.35 2.35 2.36
0.24 0.34 0.48 0.64 0.65 0.90 1.01 0.89 0.68 0.64 0.65 0.66 0.68 0.73 0.82 0.94 0.95 0.93 1.02 1.08 0.96 0.77 0.69 0.64 0.67 0.77 0.93 0.97 1.03 1.01 1.07 1.18 1.45 1.67 1.61 1.43 1.42 1.44 1.40 1.35 1.43 1.58 1.71 1.82 1.95 2.01 2.02 2.05 2.19
0.32 0.44 0.64 0.96 0.90 0.83 1.01 0.99 0.72 0.65 0.69 0.70 0.69 0.68 0.74 0.86 0.87 0.90 0.94 0.89 0.80 0.65 0.57 0.53 0.54 0.66 0.79 0.79 0.84 0.91 0.93 1.04 1.17 1.28 1.30 1.24 1.15 1.12 1.18 1.22 1.24 1.32 1.49 1.61 1.66 1.68 1.71 1.78 1.91